Palacios, TX

3:39 PM CDT on April 25, 2017 (GMT -0500)
Palacios Municipal

Weather History for KPSX - September, 2013

Change the Weather History Date:

Friday, September 20, 2013

  Actual Average Record
Temperature  
Mean Temperature 82 °F -  
Max Temperature 87 °F 86 °F 97 °F (2016)
Min Temperature 77 °F 71 °F 57 °F (1981)
Cooling Degree Days 16    
Growing Degree Days 32 (Base 50)    
Moisture  
Dew Point 77 °F    
Average Humidity 85    
Maximum Humidity 94    
Minimum Humidity 74    
Precipitation  
Precipitation 0.46 in - - ()
Sea Level Pressure  
Sea Level Pressure 29.78 in    
Wind  
Wind Speed 13 mph (SSE)    
Max Wind Speed 39 mph    
Max Gust Speed 115 mph    
Visibility 8 miles    
Events Rain , Thunderstorm    
Averages and records for this station are not official NWS values.
T = Trace of Precipitation, MM = Missing Value Source: NWS Daily Summary

Daily Weather History Graph

Daily Weather History Graph

Search for Another Location

Airport or City:

Trip Planner

Search our weather history database for the weather conditions in past years. The results will help you decide how hot, cold, wet, or windy it might be!

Date:

Astronomy

Sep. 20, 2013 Rise Set
Actual Time 7:12 AM CDT 7:23 PM CDT
Civil Twilight 6:48 AM CDT 7:47 PM CDT
Nautical Twilight 6:21 AM CDT 8:14 PM CDT
Astronomical Twilight 5:53 AM CDT 8:42 PM CDT
Moon 8:09 PM CDT (9/20) 8:18 AM CDT (9/20)
Length of Visible Light 12h 58m
Length of Day
12h 11m
Full, 98% of the Moon is Illuminated
Sep 20
Full
Sep 26
Last Quarter
Oct 4
New
Oct 11
First Quarter
Oct 18
Full

Hourly Weather History & Observations

Time (CDT) Temp. Heat Index Dew Point Humidity Pressure Visibility Wind Dir Wind Speed Gust Speed Precip Events Conditions
12:42 AM 80.6 °F 87.1 °F 77.0 °F 89% 29.86 in 1.8 mi South 17.3 mph 32.2 mph 0.14 in Rain Light Rain
12:47 AM 80.6 °F 87.1 °F 77.0 °F 89% 29.86 in 2.0 mi South 16.1 mph 25.3 mph 0.22 in Rain Heavy Rain
12:53 AM 79.0 °F - 77.0 °F 94% 29.85 in 3.0 mi SSE 11.5 mph 23.0 mph 0.24 in Rain Rain
1:53 AM 80.1 °F 85.8 °F 77.0 °F 90% 29.84 in 10.0 mi SSE 10.4 mph 25.3 mph 0.00 in   Clear
2:53 AM 81.0 °F 87.9 °F 77.0 °F 88% 29.83 in 10.0 mi SSE 9.2 mph - N/A   Mostly Cloudy
3:08 AM 82.4 °F 92.4 °F 78.8 °F 89% 29.83 in 10.0 mi SSE 10.4 mph - N/A   Overcast
3:23 AM 82.4 °F 90.9 °F 77.0 °F 84% 29.82 in 10.0 mi SSE 12.7 mph - N/A   Scattered Clouds
3:53 AM 82.0 °F 91.0 °F 78.1 °F 88% 29.81 in 10.0 mi SSE 9.2 mph - N/A   Partly Cloudy
4:53 AM 82.0 °F 90.2 °F 77.0 °F 85% 29.81 in 10.0 mi SSE 11.5 mph - N/A   Clear
5:53 AM 82.0 °F 90.2 °F 77.0 °F 85% 29.81 in 10.0 mi SSE 11.5 mph - N/A   Clear
6:53 AM 82.0 °F 90.2 °F 77.0 °F 85% 29.80 in 10.0 mi SSE 9.2 mph - N/A   Partly Cloudy
7:41 AM 82.4 °F 92.4 °F 78.8 °F 89% 29.81 in 9.0 mi SSE 8.1 mph - N/A Thunderstorm Scattered Clouds
7:53 AM 82.0 °F 90.2 °F 77.0 °F 85% 29.81 in 9.0 mi SSE 10.4 mph - N/A   Scattered Clouds
8:30 AM 80.6 °F 86.2 °F 75.2 °F 84% 29.81 in 10.0 mi SSE 8.1 mph - 0.02 in Rain , Thunderstorm Light Thunderstorms and Rain
8:45 AM 80.6 °F 87.1 °F 77.0 °F 89% 29.81 in 9.0 mi SSE 5.8 mph - 0.02 in   Mostly Cloudy
8:53 AM 81.0 °F 88.6 °F 78.1 °F 91% 29.81 in 8.0 mi SE 4.6 mph - 0.02 in   Mostly Cloudy
9:46 AM 78.8 °F - 75.2 °F 89% 29.82 in 1.5 mi SSE 16.1 mph 31.1 mph 0.12 in Rain Heavy Rain
9:53 AM 79.0 °F - 73.9 °F 84% 29.82 in 1.5 mi SSE 11.5 mph 23.0 mph 0.12 in Rain Light Rain
9:55 AM 78.8 °F - 73.4 °F 83% 29.82 in 3.0 mi South 11.5 mph 23.0 mph 0.00 in Rain Light Rain
10:08 AM 78.8 °F - 75.2 °F 89% 29.83 in 9.0 mi SSE 17.3 mph 28.8 mph 0.02 in Thunderstorm Overcast
10:28 AM 78.8 °F - 75.2 °F 89% 29.83 in 10.0 mi SSE 16.1 mph - 0.02 in   Mostly Cloudy
10:53 AM 82.9 °F 90.8 °F 75.9 °F 79% 29.82 in 10.0 mi South 13.8 mph 21.9 mph 0.02 in   Mostly Cloudy
11:53 AM 84.9 °F 95.3 °F 77.0 °F 77% 29.80 in 10.0 mi South 13.8 mph - N/A   Partly Cloudy
12:53 PM 84.9 °F 95.3 °F 77.0 °F 77% 29.79 in 10.0 mi South 15.0 mph - N/A   Scattered Clouds
1:06 PM 86.0 °F 99.3 °F 78.8 °F 79% 29.79 in 10.0 mi SSE 13.8 mph - N/A   Mostly Cloudy
1:49 PM 82.4 °F 89.5 °F 75.2 °F 79% 29.78 in 9.0 mi South 13.8 mph 23.0 mph 0.00 in Rain , Thunderstorm Light Thunderstorms and Rain
1:53 PM 82.9 °F 90.8 °F 75.9 °F 79% 29.78 in 10.0 mi South 12.7 mph - 0.00 in Rain , Thunderstorm Light Thunderstorms and Rain
2:18 PM 86.0 °F 99.3 °F 78.8 °F 79% 29.77 in 10.0 mi South 9.2 mph 19.6 mph 0.00 in   Scattered Clouds
2:32 PM 82.4 °F 90.9 °F 77.0 °F 84% 29.76 in 6.0 mi SSW 13.8 mph 20.7 mph 0.00 in Rain Light Rain
2:53 PM 82.9 °F 92.8 °F 78.1 °F 85% 29.74 in 9.0 mi South 9.2 mph - 0.00 in   Mostly Cloudy
3:01 PM 84.2 °F 96.1 °F 78.8 °F 84% 29.74 in 9.0 mi South 10.4 mph - N/A   Scattered Clouds
3:53 PM 84.9 °F 95.3 °F 77.0 °F 77% 29.74 in 10.0 mi South 16.1 mph 21.9 mph N/A   Mostly Cloudy
4:53 PM 86.0 °F 98.3 °F 78.1 °F 77% 29.73 in 10.0 mi South 12.7 mph - N/A   Scattered Clouds
5:05 PM 86.0 °F 96.9 °F 77.0 °F 74% 29.73 in 10.0 mi South 13.8 mph - N/A   Mostly Cloudy
5:20 PM 84.2 °F 94.1 °F 77.0 °F 79% 29.72 in 10.0 mi South 9.2 mph - N/A   Scattered Clouds
5:53 PM 84.9 °F 95.3 °F 77.0 °F 77% 29.73 in 10.0 mi South 12.7 mph - N/A   Partly Cloudy
6:53 PM 82.9 °F 91.8 °F 77.0 °F 82% 29.72 in 10.0 mi South 9.2 mph - 0.00 in   Mostly Cloudy
7:53 PM 84.0 °F 94.8 °F 78.1 °F 82% 29.73 in 10.0 mi South 9.2 mph - N/A   Partly Cloudy
8:53 PM 82.9 °F 92.8 °F 78.1 °F 85% 29.74 in 10.0 mi South 10.4 mph - N/A   Mostly Cloudy
9:53 PM 82.9 °F 93.8 °F 79.0 °F 88% 29.75 in 10.0 mi South 5.8 mph - 0.01 in   Mostly Cloudy
10:26 PM 82.4 °F 92.4 °F 78.8 °F 89% 29.75 in 10.0 mi North - - N/A   Overcast
10:38 PM 82.4 °F 92.4 °F 78.8 °F 89% 29.75 in 9.0 mi South 6.9 mph - N/A   Mostly Cloudy
10:53 PM 82.0 °F 91.0 °F 78.1 °F 88% 29.75 in 9.0 mi South 5.8 mph - N/A   Overcast
11:39 PM 77.0 °F - 73.4 °F 89% 29.74 in 4.0 mi NNW 12.7 mph 25.3 mph 0.05 in Rain Light Rain
11:42 PM 77.0 °F - 73.4 °F 89% 29.75 in 5.0 mi North 39.1 mph 78.3 mph 0.05 in Rain , Thunderstorm Light Rain
11:51 PM 77.0 °F - 73.4 °F 89% 29.75 in 10.0 mi North 12.7 mph 115.1 mph 0.05 in Thunderstorm Squalls
11:53 PM 77.0 °F - 73.9 °F 90% 29.75 in 10.0 mi North 16.1 mph 102.4 mph 0.05 in Thunderstorm Overcast